Regional Weather Roundup
Issued by NWS Sterling, VA

Home | Current Version | Previous Version | Graphics & Text | Print | Product List | Glossary On
Versions: 1 2 3 4 5 6 7 8 9 10 11 12 13 14 15 16 17 18 19 20 21 22 23 24 25 26 27 28 29 30 31 32 33 34 35 36 37 38 39 40 41 42 43 44 45 46 47 48 49 50
000
ASUS41 KLWX 181611
RWRLWX

REGIONAL WEATHER ROUNDUP
NATIONAL WEATHER SERVICE BALTIMORE MD/WASHINGTON DC
1200 PM EDT WED APR 18 2018

Note: "FAIR" indicates few or no clouds below 12,000 feet
with no significant weather and/or obstructions to visibility.
 TC=TEMPERATURE CELSIUS

 * =Non NWS site. Station does not report precipitation (e.g. rain,
    snow, etc.), thunder, or fog.

DCZ001-MDZ009-015-VAZ040>042-051-053>054-181700-
WASHINGTON METRO

CITY           SKY/WX    TMP DP  RH WIND       PRES   REMARKS
WASHINGTON NAT FAIR      54  30  40 W10       29.91F
DULLES         FAIR      50  31  48 VRB6      29.90F
ANDREWS AFB    FAIR      51  29  42 W9        29.89F
FT BELVOIR     FAIR      53  28  39 W6        29.90F
QUANTICO       FAIR      49  33  54 SE6       29.92F
COLLEGE PARK*  FAIR      50  29  43 W7        29.89F
LEESBURG*      FAIR      50  32  50 CALM      29.90F
MANASSAS*      PTSUNNY   51  33  50 S8        29.91F
GAITHERSBURG*  FAIR      48  28  46 W10       29.89F

$$

MDZ006>007-011-014-181700-
BALTIMORE METRO

CITY           SKY/WX    TMP DP  RH WIND       PRES   REMARKS
BWI AIRPORT    FAIR      51  28  41 NW13G22   29.88F
MD SCIENCE CTR   N/A     52  24  33 MISG      29.89F
MARTIN STATE   SUNNY     50  30  46 W12G18    29.91F
ANNAPOLIS      FAIR      54  30  40 W12G20    29.89F
FORT MEADE*    FAIR      52  30  43 W9G20     29.91F

$$

MDZ012-015-019>023-181700-
MARYLAND EASTERN SHORE

CITY           SKY/WX    TMP DP  RH WIND       PRES   REMARKS
OCEAN CITY     FAIR      48  33  56 S9        29.91F
SALISBURY      FAIR      53  32  44 NW12      29.89F
BAY BRIDGE AP* FAIR      48  27  43 CALM      29.90F
CAMBRIDGE*     SUNNY     50  30  46 VRB8      29.91F
EASTON*        SUNNY     50  30  46 NW7       29.94F

$$

MDZ017>025-181700-
SOUTHERN MARYLAND

CITY           SKY/WX    TMP DP  RH WIND       PRES   REMARKS
PATUXENT RIVER PTSUNNY   51  32  48 SE8       29.90F
ST INIGOES     FAIR      51  31  46 VRB5      29.90F
LEONARDTOWN*   PTSUNNY   50  32  50 SW8       29.91F

$$

MDZ003>005-181700-
NORTH CENTRAL MARYLAND

CITY           SKY/WX    TMP DP  RH WIND       PRES   REMARKS
FREDERICK*     SUNNY     48  23  37 NW8       29.93F
HAGERSTOWN APT FAIR      45  27  49 N7        29.88F
WESTMINSTER*   FAIR      45  27  49 W10G17    29.87F

$$

MDZ501>502-181700-
WESTERN MARYLAND

CITY           SKY/WX    TMP DP  RH WIND       PRES   REMARKS
OAKLAND*       FAIR      37  23  56 W8        29.81S WCI  31
CUMBERLAND*    FAIR      52  27  37 SE5       29.90F

$$

VAZ025>031-181700-
SHENANDOAH VALLEY

CITY           SKY/WX    TMP DP  RH WIND       PRES   REMARKS
WINCHESTER*    FAIR      45  30  57 CALM      29.89F
FRONT ROYAL*   FAIR      48  30  49 E5        29.86F
LURAY*         FAIR      52  32  46 CALM      29.85F
NEW MARKET*    FAIR      50  33  52 CALM      29.85F
STAUNTON*      FAIR      52  36  54 CALM      29.85F
WAYNESBORO*    FAIR      55  34  46 E8        29.83S

$$

WVZ021-048>050-054>055-181700-
EASTERN WEST VIRGINIA PANHANDLE

CITY           SKY/WX    TMP DP  RH WIND       PRES   REMARKS
MARTINSBURG    FAIR      49  26  41 VRB6      29.87F
PETERSBURG*    FAIR      49  32  50 CALM      29.83F

$$

VAZ036>039-050-181700-
CENTRAL FOOTHILLS

CITY           SKY/WX    TMP DP  RH WIND       PRES   REMARKS
CHARLOTTESVILL FAIR      53  32  44 SW8G17    29.88F
CULPEPER*      FAIR      51  31  45 SW9       29.91S
ORANGE*        FAIR      50  32  50 SW12      29.89F
GORDONSVILLE*  FAIR      51  32  48 SW9       29.89F
WARRENTON*     FAIR      53  30  41 S6        29.90S

$$

VAZ055>057-181700-
NORTH AND CENTRAL PIEDMONT

CITY           SKY/WX    TMP DP  RH WIND       PRES   REMARKS
FREDERICKSBRG* FAIR      53  33  46 SW7       29.90F
STAFFORD*      FAIR      53  32  45 SW5       29.95S

$$

NCZ024-NYZ072-PAZ021-071-VAZ022-071-181700-
OTHER REGIONAL OBSERVATIONS

CITY           SKY/WX    TMP DP  RH WIND       PRES   REMARKS
NEW YORK CITY  PTSUNNY   47  27  45 W10G21    29.83R
PHILADELPHIA   FAIR      46  26  45 SW10      29.87F
PITTSBURGH     FAIR      41  25  53 VRB3      29.86F
ROANOKE        FAIR      59  38  45 SE9       29.87F
RICHMOND       FAIR      52  34  50 VRB7      29.91F
RALEIGH        PTSUNNY   62  49  62 SW8       29.91F

$$

ANZ530>537-181700-
MARINE OBSERVATIONS

STATION/POSITION TIME  TEMP    WIND        PRES
                       AIR SEA DIR/SP/G
                 (UTC) (F)     (DEG/KT/KT) (MB)
THOMAS PT LIGHT  1600   46 50  160/  3/  4 1013.3F
BALT KEY BRIDGE  1536   46     300/ 12/ 14 1012.2F
COVE POINT       1536   44     120/  6/  8 1013.4F
LEWISETTA        1536   47 53   50/  5/  8 1012.9F
SOLOMONS ISLAND  1536   48 51   CALM  /  3 1012.6F
PINEY POINT      1542          360/  7/  7   N/A

$$




USA.gov is the U.S. government's official web portal to all federal, state and local government web resources and services.